Flag for Bahrain Weather past 2 weeks in Riffa, Bahrain

Now
97 °F

Clear.


Feels Like: 105 °F
Forecast: 94 / 103 °F
Wind: 8 mph from Northwest

Location: Bahrain International Airport

Current Time: Jul 5, 2015 at 9:33:47 AM

Latest Report: Jul 5, 2015 at 9:00 AM


Visibility: 4 mi

Pressure: 29.56 "Hg

Humidity: 44%

Dew point: 72 °F

Location of RiffaLocation

Historic Weather in Riffa — Graph

°F

Riffa temperature yesterday

Maximum temperature yesterday: 100 °F (at 1:00 PM)
Minimum temperature yesterday: 86 °F (at 5:00 AM)
Average temperature yesterday: 92 °F

Past Weeks' High & Low Weather Summary

 TemperatureHumidityPressure
High102 °F (Jun 24, 11:00 AM)89% (Jul 4, 8:00 PM)29.65 "Hg (Jul 4, 8:00 PM)
Low86 °F (Jul 4, 5:00 AM)14% (Jun 24, 12:00 AM)29.42 "Hg (Jun 20, 6:00 PM)
Average94 °F42%29.54 "Hg
* Reported Jun 20 8:00 AM — Jul 5 8:00 AM, Riffa, Weather by CustomWeather, © 2015

Note: Actual official high and low records may vary slightly from our data, if they occured in-between our weather recording intervals... More about our weather records

Advertising

Riffa weather history for previous 24 hours

 ConditionsComfort  
Time TempWeatherWind HumidityBarometerVisibility
8:00 AM
Sun, Jul 5
97 °FClear.5 mph47%29.56 "Hg4 mi
7:00 AM93 °FClear.2 mph63%29.56 "Hg4 mi
6:00 AM91 °FHaze.2 mph75%29.56 "Hg3 mi
5:00 AM90 °FHaze.2 mph79%29.56 "Hg3 mi
4:00 AM90 °FHaze.3 mph84%29.53 "Hg3 mi
3:00 AM91 °FHaze.3 mph80%29.53 "Hg3 mi
2:00 AM90 °FHaze.5 mph79%29.50 "Hg3 mi
1:00 AM90 °FHaze.6 mph84%29.50 "Hg3 mi
12:00 AM90 °FClear.8 mph84%29.53 "Hg3 mi
11:00 PM
Sat, Jul 4
90 °FClear.8 mph84%29.53 "Hg3 mi
10:00 PM90 °FHaze.10 mph89%29.56 "Hg3 mi
9:00 PM90 °FHaze.6 mph89%29.53 "Hg3 mi
8:00 PM90 °FClear.3 mph89%29.53 "Hg4 mi
7:00 PM90 °FClear.7 mph84%29.53 "Hg4 mi
6:00 PM91 °FSunny.9 mph80%29.50 "Hg4 mi
5:00 PM93 °FClear.9 mph75%29.50 "Hg4 mi
4:00 PM95 °FSunny.9 mph63%29.53 "Hg4 mi
3:00 PM100 °FSunny.9 mph33%29.53 "Hg4 mi
2:00 PM100 °FSunny.9 mph33%29.53 "Hg4 mi
1:00 PM100 °FSunny.9 mph29%29.53 "Hg4 mi
12:00 PM95 °FSunny.9 mph53%29.56 "Hg4 mi
11:00 AM95 °FClear.10 mph63%29.56 "Hg4 mi
10:00 AM93 °FClear.7 mph63%29.56 "Hg4 mi
9:00 AM91 °FSunny.7 mph80%29.56 "Hg4 mi
Weather by CustomWeather, © 2015

See weather overviewHow to use our weather pages